Location: Berua Church
(35.0423°N, 88.5987°W)
Time: 01:59:08
(UTC+00:00)

Atlas Centaur 2 - Pass Details

Date: 08 December 2019
Orbit: 459 x 1310 km, 30.4° (Epoch: 28 January)

Event Time Altitude Azimuth Distance (km) Brightness Sun altitude
Rises 23:01:32 0° 270° (W) 3,749 7.0 -4.3°
Reaches altitude 10° 23:04:07 10° 265° (W) 2,910 6.4 -4.8°
Maximum altitude 23:11:16 55° 190° (S) 1,432 3.7 -6.1°
Drops below altitude 10° 23:19:27 10° 116° (ESE) 3,305 4.9 -7.7°
Sets 23:22:33 0° 112° (ESE) 4,290 5.4 -8.3°
